Regional Weather Roundup
Issued by NWS

Home | Current Version | Previous Version | Graphics & Text | Print | Product List | Glossary On
Versions: 1 2 3 4 5 6 7 8 9 10 11 12 13 14 15 16 17 18 19 20 21 22 23 24 25 26 27 28 29 30 31 32 33 34 35 36 37 38 39 40 41 42 43 44 45 46 47 48 49 50
000
ASUS43 KMKX 222300
RWRWI

WISCONSIN REGIONAL WEATHER ROUNDUP
NATIONAL WEATHER SERVICE MILWAUKEE/SULLIVAN WI
600 PM CDT WED MAR 22 2017

NOTE: "FAIR" INDICATES FEW OR NO CLOUDS BELOW 12,000 FEET WITH NO
SIGNIFICANT WEATHER AND/OR OBSTRUCTIONS TO VISIBILITY.

WIZ001-002-006>008-014>016-023>028-230000-
NORTHWEST WISCONSIN

CITY           SKY/WX    TMP DP  RH WIND       PRES   REMARKS
SUPERIOR ARPT  SUNNY     31  19  62 E9        30.41F WCI  22
ASHLAND        SUNNY     32  15  49 NE7       30.41F WCI  26
HAYWARD        MOSUNNY   38   7  27 SE9       30.38F WCI  31
SIREN          MOSUNNY   38   6  26 SE8       30.38F WCI  32
CUMBERLAND     MOSUNNY   34   9  35 SE8       30.39F WCI  27
RICE LAKE      MOSUNNY   37   8  30 CALM      30.41F
CHETEK         MOSUNNY   36   8  31 S7        30.41F WCI  31
LADYSMITH      MOSUNNY   35   8  32 S7        30.44F WCI  29
EAU CLAIRE     NOT AVBL
MENOMONIE      PTSUNNY   38   8  28 SE8       30.40F WCI  32
NEW RICHMOND   CLOUDY    37   5  26 S10       30.40F WCI  30
OSCEOLA        CLOUDY    38   8  29 SE9       30.42F WCI  31
$$

WIZ003>005-009-010-017-018-230000-
NORTH CENTRAL WISCONSIN

CITY           SKY/WX    TMP DP  RH WIND       PRES   REMARKS
MANITOWISH WTR CLOUDY    35   4  27 S9        30.38F WCI  27
ARBOR VITAE    CLOUDY    37   6  28 S7        30.39F WCI  31
WOODRUFF       CLOUDY    37   6  28 S7        30.39F WCI  31
RHINELANDER    CLOUDY    35   4  27 S8        30.41F WCI  29
EAGLE RIVER    CLOUDY    34  -3  20 S7        30.39F WCI  28
LAND O LAKES   SUNNY     35  -2  21 SW6       30.41F WCI  29
PHILLIPS       MOSUNNY   35   7  31 S8        30.39F WCI  28
TOMAHAWK       CLOUDY    35   8  32 CALM      30.42F
MEDFORD        SUNNY     31  12  44 S8        30.42F WCI  24
MERRILL        SUNNY     35   6  29 SW7       30.44F WCI  29
$$

WIZ029-030-035-036-043>047-230000-
CENTRAL WISCONSIN

CITY           SKY/WX    TMP DP  RH WIND       PRES   REMARKS
WAUSAU         SUNNY     34   5  29 SE9       30.43F WCI  27
MOSINEE        PTSUNNY   34   7  32 S6        30.45F WCI  29
MARSHFIELD     MOSUNNY   35   7  31 S8        30.42F WCI  29
STEVENS POINT  SUNNY     34   6  32 S7        30.47F WCI  27
WAUPACA        MOSUNNY   37   5  26 SE6       30.51S WCI  32
WAUTOMA        SUNNY     35  11  36 SE7       30.49S WCI  29
WISC RAPIDS    SUNNY     37   7  28 S7        30.46F WCI  32
CAMP DOUGLAS   NOT AVBL
$$

WIZ011>013-019>022-031-037>040-048>050-230000-
NORTHEAST WISCONSIN

CITY           SKY/WX    TMP DP  RH WIND       PRES   REMARKS
ANTIGO         MOSUNNY   32   7  34 S7        30.44F WCI  26
SHAWANO        MOSUNNY   36  13  39 SE3       30.49F
OCONTO         CLOUDY    28  16  58 SE5       30.52F WCI  23
STURGEON BAY   SUNNY     26  16  65 E8        30.54F WCI  18
GREEN BAY      MOSUNNY   35  19  52 S7        30.51F WCI  29
MANITOWOC      NOT AVBL
APPLETON       PTSUNNY   34   9  35 VRB5      30.49F WCI  30
CLINTONVILLE   SUNNY     34  10  37 SE5       30.49F WCI  30
OSHKOSH        SUNNY     33  18  53 E5        30.50F WCI  29
$$

WIZ032>034-041-042-053>061-230000-
SOUTHWEST WISCONSIN

CITY           SKY/WX    TMP DP  RH WIND       PRES   REMARKS
LA CROSSE      SUNNY     41   8  25 SW8       30.43F
SPARTA         MOSUNNY   40   9  27 SE9       30.44F WCI  34
VIROQUA        SUNNY     39   8  28 S10       30.41F WCI  32
BOSCOBEL       MOSUNNY   41   9  26 VRB5      30.45F
PRAIRIE DU CHI CLOUDY    40   7  24 E9        30.44S WCI  35
PLATTEVILLE    MOSUNNY   40  15  35 SE8       30.44F WCI  35
$$

WIZ056-057-062-063-064-067-068-230000-
SOUTH CENTRAL WISCONSIN

CITY           SKY/WX    TMP DP  RH WIND       PRES   REMARKS
REEDSBURG      SUNNY     38  14  37 SE7       30.46S WCI  32
BARABOO/DELLS  SUNNY     37  14  39 SE9       30.46F WCI  30
LONE ROCK      NOT AVBL
MINERAL POINT  PTSUNNY   39  12  33 E10       30.43F WCI  32
MADISON        PTSUNNY   38  15  39 SE9       30.46F WCI  31
MIDDLETON      SUNNY     40  16  37 E7        30.47F
WATERTOWN      SUNNY     36  16  44 E3        30.49S
MONROE         PTSUNNY   37  14  38 E7        30.45S WCI  32
JANESVILLE     PTSUNNY   39  18  41 E10       30.47F WCI  32
$$

WIZ051-052-058>065-066-070>072-230000-
SOUTHEAST WISCONSIN

CITY           SKY/WX    TMP DP  RH WIND       PRES   REMARKS
MILWAUKEE      PTSUNNY   30  17  58 E9        30.54S WCI  22
WAUKESHA       SUNNY     30  18  59 E8        30.52S WCI  23
MILWAUKEE/TIMM SUNNY     30  16  55 E9        30.54S WCI  22
RACINE         SUNNY     29  16  58 E6        30.55S WCI  23
KENOSHA        SUNNY     28  17  63 E9        30.53S WCI  19
FOND DU LAC    SUNNY     35  19  52 NE8       30.50F WCI  29
SHEBOYGAN      CLOUDY    28  17  63 E9        30.53F WCI  19
WEST BEND      SUNNY     30  19  64 E6        30.51F WCI  24
JUNEAU         SUNNY     35  17  47 E8        30.50S WCI  29
$$

LSZ147-162-230000-
LAKE SUPERIOR

STATION/POSITION TIME  TEMP    WIND        PRES    WAVE
                       AIR SEA DIR/SP/G            HT/PER
                 (UTC) (F)     (DEG/KT/KT) (MB)    (FT/S)
DEVILS ISLAND    2200   26      70/ 12/ 13 1032.4F
PORT WING        2240   31      30/ 14/ 16 1029.8F
SAXON HARBOR     2240   29      40/ 11/ 13 1029.8F
$$

LMZ867-665-643>646-230000-
LAKE MICHIGAN

STATION/POSITION TIME  TEMP    WIND        PRES    WAVE
                       AIR SEA DIR/SP/G            HT/PER
                 (UTC) (F)     (DEG/KT/KT) (MB)    (FT/S)
CHAMBERS ISLAND  2230   29      CALM  /  4 1033.2F
NORTHPORT PIER   2240   25     150/  3/  4 1033.9F
SISTER BAY       2235   29     130/  7/ 10   N/A
KEWAUNEE LAKESHO 2224   26      90/  1/  3 1033.8
SHEBOYGAN LAKESH 2200   26      90/  7/  8 1035.5F
PORT WASHINGTON  2230   29     100/  7/  9 1034.9F
MILWAUKEE LAKESH 2230   28      60/  7/  8   N/A
KENOSHA   LAKESH 2200   28      80/  7/ 10 1034.2
$$

TC  - TEMPERATURE IN CELSIUS
VSB - VISIBILITY IN STATUTE MILES
WCI - WIND CHILL INDEX
HX  - HEAT INDEX





USA.gov is the U.S. government's official web portal to all federal, state and local government web resources and services.